Regional Weather Roundup
Issued by NWS

Home | Current Version | Previous Version | Graphics & Text | Print | Product List | Glossary On
Versions: 1 2 3 4 5 6 7 8 9 10 11 12 13 14 15 16 17 18 19 20 21 22 23 24 25 26 27 28 29 30 31 32 33 34 35 36 37 38 39 40 41 42 43 44 45 46 47 48 49 50
000
ASUS44 KMEG 251200
RWRTN
TENNESSEE HOURLY STATE WEATHER ROUNDUP
NATIONAL WEATHER SERVICE MEMPHIS TN
600 AM CST SUN JAN 25 2015

TNZ002-004-019-021-049-052-054-088>092-251300-
WEST TENNESSEE

CITY           SKY/WX    TMP DP  RH WIND       PRES   REMARKS
MEMPHIS INTL   MOCLDY    41  33  73 S5        29.80F
NWS MEMPHIS      N/A     40 N/A N/A MISG        N/A
JACKSON        PTCLDY    38  32  79 S10       29.78F WCI  31
DYERSBURG      MOCLDY    39  25  56 S5        29.77S
UNION CITY     CLEAR     37  34  87 S6        29.72F WCI  33
PARIS          CLEAR     36  30  80 S8        29.75F WCI  29
LEXINGTON      CLEAR     34  30  86 S5        29.78F WCI  30
SAVANNAH       CLEAR     36  32  87 S6        29.84S WCI  31
$$

TNZ008-025-027-028-033-062-065-066-251300-
NORTH MIDDLE TENNESSEE

CITY           SKY/WX    TMP DP  RH WIND       PRES   REMARKS
NASHVILLE      PTCLDY    37  31  78 CALM      29.81S
CLARKSVILLE    MOCLDY    38  32  79 S8        29.75F WCI  32
COOKEVILLE     CLEAR     36  30  80 S7        29.81F WCI  30
CROSSVILLE     PTCLDY    32  27  81 S5        29.83F WCI  27
$$

TNZ061-075-076-078-094-096-097-251300-
SOUTH MIDDLE TENNESSEE

CITY           SKY/WX    TMP DP  RH WIND       PRES   REMARKS
FAYETTEVILLE   CLEAR     34  28  80 MISG      29.86R
TULLAHOMA      CLEAR     34  28  80 S7        29.85S WCI  28
WINCHESTER     CLEAR     30  28  93 SE8       29.86F WCI  23
SHELBYVILLE    CLEAR     36  30  80 S8        29.84S WCI  29
$$

TNZ017-018-042-046-047-251300-
NORTHEAST TENNESSEE

CITY           SKY/WX    TMP DP  RH WIND       PRES   REMARKS
TRI CITIES     PTCLDY    25  23  92 CALM      29.89S
ELIZABETHTON   SUNNY     25  25 100 CALM      29.89F
$$

TNZ012-013-036-069-073-074-251300-
CENTRAL EAST TENNESSEE

CITY           SKY/WX    TMP DP  RH WIND       PRES   REMARKS
KNOXVILLE      PTCLDY    34  27  75 SW6       29.88F WCI  29
OAK RIDGE      PTCLDY    29  26  89 CALM      29.90F
GATLINBURG     SUNNY     25  23  93 CALM      29.89S
$$

TNZ083-085-099-251300-
SOUTHEAST TENNESSEE

CITY           SKY/WX    TMP DP  RH WIND       PRES   REMARKS
CHATTANOOGA    PTCLDY    30  27  88 CALM      29.92R
$$

SKY/WX REPORTED AS FAIR MEANS FEW OR NO CLOUDS BELOW
12 THOUSAND FEET.




USA.gov is the U.S. government's official web portal to all federal, state and local government web resources and services.